This demonstration page uses our WeatherBlox Daily Observations layout. Learn more.

Left ArrowRight Arrow

Hourly Observations for March 30, 2021

Temp ( °F °C ) Dew Point ( °F °C ) Humidity (%) Winds ( mph kmh ) Pressure ( in mb ) Visibility ( mi km ) Precip ( " mm )
12:59 am 00:59 Clear 49 9.4 37 2.8 64 64 SSE 7 11 30.34 1027 10 16 0.00 0.00
1:59 am 01:59 Clear 49 9.4 38 3.3 66 66 SSE 7 11 30.34 1027 10 16 0.00 0.00
2:59 am 02:59 Clear 48 8.9 39 3.9 71 71 SSE 8 13 30.33 1027 10 16 0.00 0.00
3:59 am 03:59 Clear 48 8.9 36 2.2 63 63 SSE 5 7 30.33 1027 10 16 0.00 0.00
4:59 am 04:59 Clear 48 8.9 35 1.7 61 61 SSE 6 9 30.35 1028 10 16 0.00 0.00
5:59 am 05:59 Clear 47 8.3 37 2.8 69 69 SSE 5 7 30.37 1029 10 16 0.00 0.00
6:59 am 06:59 Mostly Sunny 47 8.3 36 2.2 66 66 SSE 6 9 30.39 1029 10 16 0.00 0.00
7:59 am 07:59 Mostly Sunny 51 10.6 37 2.8 59 59 SSE 6 9 30.41 1030 10 16 0.00 0.00
8:59 am 08:59 Sunny 57 13.9 38 3.3 49 49 SSE 8 13 30.41 1030 10 16 0.00 0.00
9:59 am 09:59 Sunny 60 15.6 39 3.9 46 46 S 6 9 30.42 1030 10 16 0.00 0.00
10:59 am 10:59 Partly Cloudy 63 17.2 38 3.3 40 40 S 8 13 30.42 1030 10 16 0.00 0.00
11:59 am 11:59 Partly Cloudy 65 18.3 39 3.9 39 39 SSE 12 19 30.40 1030 10 16 0.00 0.00
12:59 pm 12:59 Mostly Sunny 67 19.4 40 4.4 37 37 VRB 7 11 30.38 1029 10 16 0.00 0.00
1:59 pm 13:59 Mostly Sunny 68 20 41 5 38 38 S 7 11 30.35 1028 10 16 0.00 0.00
2:59 pm 14:59 Mostly Sunny 69 20.6 43 6.1 39 39 S 13 20 30.33 1027 10 16 0.00 0.00
3:59 pm 15:59 Mostly Sunny 68 20 42 5.6 39 39 SSE 16 26 30.31 1026 10 16 0.00 0.00
4:59 pm 16:59 Mostly Sunny 67 19.4 42 5.6 41 41 SE 16 26 30.29 1026 10 16 0.00 0.00
5:59 pm 17:59 Mostly Sunny 65 18.3 44 6.7 47 47 SE 12 19 30.29 1026 10 16 0.00 0.00
6:59 pm 18:59 Mostly Sunny 63 17.2 46 7.8 54 54 SE 9 15 30.29 1026 10 16 0.00 0.00
7:59 pm 19:59 Mostly Clear 62 16.7 47 8.3 58 58 SE 9 15 30.29 1026 10 16 0.00 0.00
8:59 pm 20:59 Mostly Clear 61 16.1 50 10 67 67 SSE 10 17 30.29 1026 10 16 0.00 0.00
9:59 pm 21:59 Mostly Clear 61 16.1 51 10.6 70 70 S 8 13 30.30 1026 10 16 0.00 0.00
10:59 pm 22:59 Mostly Clear 61 16.1 51 10.6 70 70 SSE 12 19 30.28 1025 10 16 0.00 0.00
11:59 pm 23:59 Mostly Clear 60 15.6 52 11.1 75 75 S 10 17 30.27 1025 10 16 0.00 0.00

Powered by AerisWeather